TimeEDT,TemperatureF,Dew PointF,Humidity,Sea Level PressureIn,VisibilityMPH,Wind Direction,Wind SpeedMPH,Gust SpeedMPH,PrecipitationIn,Events,Conditions,WindDirDegrees,DateUTC
12:51 AM,77.0,66.9,71,30.15,10.0,East,6.9,-,N/A,,Clear,80,2013-09-11 04:51:00
1:51 AM,75.9,66.9,74,30.15,10.0,ENE,4.6,-,N/A,,Clear,70,2013-09-11 05:51:00
2:51 AM,75.0,66.9,76,30.14,10.0,East,5.8,-,N/A,,Clear,90,2013-09-11 06:51:00
3:51 AM,75.0,66.9,76,30.14,10.0,East,4.6,-,N/A,,Clear,80,2013-09-11 07:51:00
4:51 AM,73.9,66.9,79,30.14,10.0,NE,3.5,-,N/A,,Clear,50,2013-09-11 08:51:00
5:51 AM,73.0,68.0,84,30.15,10.0,NE,3.5,-,N/A,,Clear,40,2013-09-11 09:51:00
6:51 AM,71.1,66.9,87,30.17,9.0,East,3.5,-,N/A,,Clear,90,2013-09-11 10:51:00
7:51 AM,73.0,68.0,84,30.18,7.0,NE,4.6,-,N/A,,Clear,50,2013-09-11 11:51:00
8:51 AM,75.9,69.1,79,30.19,9.0,East,5.8,-,N/A,,Clear,90,2013-09-11 12:51:00
9:51 AM,80.1,70.0,71,30.19,10.0,ESE,8.1,-,N/A,,Clear,110,2013-09-11 13:51:00
10:51 AM,82.9,66.9,58,30.19,10.0,ESE,8.1,-,N/A,,Clear,110,2013-09-11 14:51:00
11:51 AM,86.0,64.9,49,30.18,10.0,East,10.4,17.3,N/A,,Scattered Clouds,90,2013-09-11 15:51:00
12:51 PM,87.1,64.0,46,30.16,10.0,East,11.5,-,N/A,,Scattered Clouds,100,2013-09-11 16:51:00
1:51 PM,89.1,63.0,42,30.14,10.0,East,10.4,-,N/A,,Scattered Clouds,90,2013-09-11 17:51:00
2:51 PM,90.0,63.0,40,30.12,10.0,Variable,4.6,17.3,N/A,,Scattered Clouds,0,2013-09-11 18:51:00
3:51 PM,91.0,63.0,39,30.10,10.0,Variable,5.8,-,N/A,,Scattered Clouds,0,2013-09-11 19:51:00
4:51 PM,90.0,61.0,38,30.09,10.0,East,6.9,-,N/A,,Scattered Clouds,80,2013-09-11 20:51:00
5:37 PM,89.6,60.8,38,30.09,10.0,SE,6.9,-,N/A,,Partly Cloudy,130,2013-09-11 21:37:00
5:51 PM,89.1,61.0,39,30.07,10.0,East,8.1,-,N/A,,Partly Cloudy,100,2013-09-11 21:51:00
6:51 PM,89.1,60.1,38,30.07,10.0,ENE,6.9,-,N/A,,Clear,70,2013-09-11 22:51:00
7:51 PM,86.0,62.1,44,30.07,10.0,ENE,4.6,-,N/A,,Clear,70,2013-09-11 23:51:00
8:51 PM,82.9,64.0,53,30.08,10.0,ENE,3.5,-,N/A,,Clear,60,2013-09-12 00:51:00
9:51 PM,81.0,64.9,58,30.09,10.0,East,3.5,-,N/A,,Clear,80,2013-09-12 01:51:00
10:51 PM,78.1,64.9,64,30.10,10.0,Calm,Calm,-,N/A,,Clear,0,2013-09-12 02:51:00
11:51 PM,77.0,64.9,66,30.09,10.0,Calm,Calm,-,N/A,,Clear,0,2013-09-12 03:51:00